Wetterdaten: Sonntag, 26.04.2015
Datum Zeit Auen-Temp. Temp gefhlt Luftfeuchte Luftdruck Regen Wind Richtung Richtung Taupunkt Windben
26.04.2015 00:00 9,2 C 9,1 C 80 % 1011,4 hPa 0,0 mm 0,0 km/h (0 Bft) S-SO 157 5,9 C 0,0 km/h (0 Bft)
26.04.2015 00:05 9,4 C 9,2 C 85 % 1011,4 hPa 0,0 mm 0,0 km/h (0 Bft) SO 135 7,0 C 0,0 km/h (0 Bft)
26.04.2015 00:10 9,4 C 9,2 C 85 % 1011,4 hPa 0,0 mm 0,0 km/h (0 Bft) S 180 7,0 C 2,8 km/h (1 Bft)
26.04.2015 00:15 9,5 C 9,4 C 85 % 1011,1 hPa 0,0 mm 0,8 km/h (0 Bft) S 180 7,1 C 4,7 km/h (1 Bft)
26.04.2015 00:20 9,5 C 9,4 C 85 % 1011,1 hPa 0,0 mm 1,8 km/h (1 Bft) S-SW 202 7,1 C 4,1 km/h (1 Bft)
26.04.2015 00:25 9,5 C 9,4 C 85 % 1011,1 hPa 0,0 mm 2,1 km/h (1 Bft) W-SW 247 7,1 C 3,4 km/h (1 Bft)
26.04.2015 00:30 9,5 C 9,4 C 85 % 1011,1 hPa 0,0 mm 1,3 km/h (1 Bft) NW 315 7,1 C 0,0 km/h (0 Bft)
26.04.2015 00:35 9,4 C 9,3 C 84 % 1011,8 hPa 0,0 mm 0,3 km/h (0 Bft) W-SW 247 6,8 C 0,0 km/h (0 Bft)
26.04.2015 00:40 9,4 C 9,3 C 84 % 1011,8 hPa 0,0 mm 1,0 km/h (0 Bft) SW 225 6,8 C 3,6 km/h (1 Bft)
26.04.2015 00:45 9,5 C 9,4 C 84 % 1011,8 hPa 0,0 mm 3,1 km/h (1 Bft) S-SW 202 6,9 C 7,3 km/h (2 Bft)
26.04.2015 00:50 9,7 C 9,6 C 85 % 1011,8 hPa 0,0 mm 4,4 km/h (1 Bft) SW 225 7,3 C 5,2 km/h (1 Bft)
26.04.2015 00:55 9,8 C 9,7 C 84 % 1012,1 hPa 0,0 mm 5,2 km/h (1 Bft) NW 315 7,2 C 10,4 km/h (2 Bft)
26.04.2015 01:00 9,6 C 9,6 C 84 % 1012,1 hPa 0,0 mm 4,9 km/h (1 Bft) W-NW 292 7,0 C 5,4 km/h (1 Bft)
26.04.2015 01:04 9,6 C 9,5 C 84 % 1012,1 hPa 0,0 mm 5,4 km/h (1 Bft) SW 225 7,0 C 6,2 km/h (2 Bft)
26.04.2015 01:10 9,6 C 9,5 C 85 % 1012,1 hPa 0,0 mm 5,4 km/h (1 Bft) W-SW 247 7,2 C 13,7 km/h (3 Bft)
26.04.2015 01:15 9,7 C 9,6 C 85 % 1012,1 hPa 0,0 mm 6,5 km/h (2 Bft) W 270 7,3 C 16,1 km/h (3 Bft)
26.04.2015 01:20 9,7 C 9,6 C 85 % 1012,1 hPa 0,0 mm 6,5 km/h (2 Bft) W-SW 247 7,3 C 10,1 km/h (2 Bft)
26.04.2015 01:25 9,8 C 9,7 C 85 % 1012,1 hPa 0,0 mm 5,4 km/h (1 Bft) W-SW 247 7,4 C 12,2 km/h (2 Bft)
26.04.2015 01:30 9,8 C 9,7 C 85 % 1012,1 hPa 0,0 mm 4,4 km/h (1 Bft) W-SW 247 7,4 C 11,1 km/h (2 Bft)
26.04.2015 01:35 9,8 C 9,7 C 84 % 1012,6 hPa 0,0 mm 4,7 km/h (1 Bft) W-SW 247 7,2 C 0,0 km/h (0 Bft)
26.04.2015 01:40 10,0 C 9,9 C 84 % 1012,6 hPa 0,0 mm 4,7 km/h (1 Bft) W 270 7,4 C 4,4 km/h (1 Bft)
26.04.2015 01:45 10,1 C 10,0 C 84 % 1012,6 hPa 0,0 mm 5,4 km/h (1 Bft) NO 45 7,5 C 10,4 km/h (2 Bft)
26.04.2015 01:50 10,2 C 10,1 C 83 % 1012,6 hPa 0,0 mm 5,7 km/h (1 Bft) W-SW 247 7,4 C 7,0 km/h (2 Bft)
26.04.2015 01:55 10,2 C 10,1 C 83 % 1012,2 hPa 0,0 mm 4,1 km/h (1 Bft) S-SW 202 7,4 C 7,5 km/h (2 Bft)
26.04.2015 02:00 10,3 C 10,2 C 83 % 1012,2 hPa 0,0 mm 4,9 km/h (1 Bft) SW 225 7,5 C 14,2 km/h (3 Bft)
26.04.2015 02:05 10,2 C 10,1 C 83 % 1012,2 hPa 0,0 mm 6,7 km/h (2 Bft) W-SW 247 7,4 C 5,7 km/h (1 Bft)
26.04.2015 02:10 10,1 C 9,9 C 83 % 1012,2 hPa 0,0 mm 6,2 km/h (2 Bft) W 270 7,3 C 6,2 km/h (2 Bft)
26.04.2015 02:15 10,0 C 9,7 C 84 % 1012,4 hPa 0,0 mm 7,5 km/h (2 Bft) SW 225 7,4 C 21,0 km/h (4 Bft)
26.04.2015 02:20 9,8 C 9,5 C 84 % 1012,4 hPa 0,0 mm 7,8 km/h (2 Bft) W 270 7,2 C 9,3 km/h (2 Bft)
26.04.2015 02:25 9,7 C 9,4 C 85 % 1012,4 hPa 0,0 mm 8,0 km/h (2 Bft) W-SW 247 7,3 C 13,7 km/h (3 Bft)
26.04.2015 02:30 9,7 C 9,2 C 85 % 1012,4 hPa 0,0 mm 9,1 km/h (2 Bft) S 180 7,3 C 5,7 km/h (1 Bft)
26.04.2015 02:35 9,6 C 9,4 C 85 % 1012,2 hPa 0,0 mm 6,2 km/h (2 Bft) S-SW 202 7,2 C 0,0 km/h (0 Bft)
26.04.2015 02:40 9,5 C 9,3 C 85 % 1012,2 hPa 0,0 mm 4,4 km/h (1 Bft) S-SW 202 7,1 C 9,8 km/h (2 Bft)
26.04.2015 02:45 9,4 C 9,2 C 85 % 1012,2 hPa 0,0 mm 4,1 km/h (1 Bft) W 270 7,0 C 3,4 km/h (1 Bft)
26.04.2015 02:50 9,4 C 9,2 C 84 % 1012,2 hPa 0,0 mm 4,1 km/h (1 Bft) W-SW 247 6,8 C 7,8 km/h (2 Bft)
26.04.2015 02:55 9,4 C 9,1 C 85 % 1012,0 hPa 0,0 mm 3,6 km/h (1 Bft) W-SW 247 7,0 C 5,2 km/h (1 Bft)
26.04.2015 03:00 9,3 C 9,1 C 84 % 1012,0 hPa 0,0 mm 4,4 km/h (1 Bft) NW 315 6,7 C 8,0 km/h (2 Bft)
26.04.2015 03:05 9,3 C 9,1 C 84 % 1012,0 hPa 0,0 mm 3,1 km/h (1 Bft) N-NW 337 6,7 C 0,0 km/h (0 Bft)
26.04.2015 03:10 9,3 C 9,1 C 84 % 1012,0 hPa 0,0 mm 2,8 km/h (1 Bft) W 270 6,7 C 0,0 km/h (0 Bft)
26.04.2015 03:15 9,2 C 9,0 C 84 % 1011,7 hPa 0,0 mm 2,6 km/h (1 Bft) S 180 6,6 C 0,0 km/h (0 Bft)
26.04.2015 03:20 9,1 C 8,9 C 84 % 1011,7 hPa 0,0 mm 1,3 km/h (1 Bft) S 180 6,5 C 0,0 km/h (0 Bft)
26.04.2015 03:25 9,2 C 8,9 C 84 % 1011,7 hPa 0,0 mm 1,8 km/h (1 Bft) S 180 6,6 C 10,1 km/h (2 Bft)
26.04.2015 03:30 9,2 C 8,9 C 84 % 1011,7 hPa 0,0 mm 3,6 km/h (1 Bft) SW 225 6,6 C 5,7 km/h (1 Bft)
26.04.2015 03:35 9,2 C 9,0 C 84 % 1011,6 hPa 0,0 mm 3,1 km/h (1 Bft) S-SW 202 6,6 C 3,9 km/h (1 Bft)
26.04.2015 03:40 9,1 C 8,9 C 83 % 1011,6 hPa 0,0 mm 2,6 km/h (1 Bft) SW 225 6,4 C 5,2 km/h (1 Bft)
26.04.2015 03:45 9,2 C 9,0 C 83 % 1011,6 hPa 0,0 mm 1,8 km/h (1 Bft) W-SW 247 6,5 C 8,8 km/h (2 Bft)
26.04.2015 03:50 9,3 C 9,1 C 83 % 1011,6 hPa 0,0 mm 2,8 km/h (1 Bft) S-SW 202 6,6 C 4,4 km/h (1 Bft)
26.04.2015 03:55 9,3 C 9,1 C 83 % 1011,5 hPa 0,0 mm 3,4 km/h (1 Bft) S-SO 157 6,6 C 0,0 km/h (0 Bft)
26.04.2015 04:00 9,1 C 8,9 C 83 % 1011,5 hPa 0,0 mm 2,6 km/h (1 Bft) SO 135 6,4 C 0,0 km/h (0 Bft)
26.04.2015 04:05 9,0 C 8,8 C 83 % 1011,5 hPa 0,0 mm 1,0 km/h (0 Bft) O-SO 112 6,3 C 0,0 km/h (0 Bft)
26.04.2015 04:10 8,8 C 8,6 C 84 % 1011,5 hPa 0,0 mm 0,3 km/h (0 Bft) N-NO 22 6,2 C 0,0 km/h (0 Bft)
26.04.2015 04:15 8,8 C 8,6 C 84 % 1011,4 hPa 0,0 mm 0,8 km/h (0 Bft) SW 225 6,2 C 7,3 km/h (2 Bft)
26.04.2015 04:20 8,9 C 8,7 C 84 % 1011,4 hPa 0,0 mm 0,8 km/h (0 Bft) N-NO 22 6,3 C 0,0 km/h (0 Bft)
26.04.2015 04:25 9,0 C 8,8 C 84 % 1011,4 hPa 0,0 mm 2,1 km/h (1 Bft) W-SW 247 6,4 C 0,0 km/h (0 Bft)
26.04.2015 04:30 9,2 C 9,0 C 83 % 1011,4 hPa 0,0 mm 1,8 km/h (1 Bft) SW 225 6,5 C 0,0 km/h (0 Bft)
26.04.2015 04:35 9,3 C 9,1 C 83 % 1011,5 hPa 0,0 mm 0,3 km/h (0 Bft) SW 225 6,6 C 0,0 km/h (0 Bft)
26.04.2015 04:40 9,2 C 9,0 C 83 % 1011,5 hPa 0,0 mm 0,0 km/h (0 Bft) W-SW 247 6,5 C 0,0 km/h (0 Bft)
26.04.2015 04:45 9,1 C 8,9 C 83 % 1011,5 hPa 0,0 mm 0,0 km/h (0 Bft) SW 225 6,4 C 0,0 km/h (0 Bft)
26.04.2015 04:50 9,1 C 8,9 C 83 % 1011,5 hPa 0,0 mm 0,0 km/h (0 Bft) S 180 6,4 C 0,0 km/h (0 Bft)
26.04.2015 04:55 9,1 C 8,9 C 83 % 1011,2 hPa 0,7 mm 0,0 km/h (0 Bft) S 180 6,4 C 0,0 km/h (0 Bft)
26.04.2015 05:00 9,0 C 8,8 C 83 % 1011,2 hPa 0,0 mm 0,0 km/h (0 Bft) SW 225 6,3 C 0,0 km/h (0 Bft)
26.04.2015 05:05 9,0 C 8,9 C 82 % 1011,2 hPa 0,0 mm 0,0 km/h (0 Bft) SW 225 6,1 C 0,0 km/h (0 Bft)
26.04.2015 05:10 8,9 C 8,8 C 83 % 1011,2 hPa 0,0 mm 0,0 km/h (0 Bft) O-NO 67 6,2 C 0,0 km/h (0 Bft)
26.04.2015 05:15 8,6 C 8,5 C 83 % 1010,9 hPa 0,0 mm 0,0 km/h (0 Bft) O-NO 67 5,9 C 0,0 km/h (0 Bft)
26.04.2015 05:20 8,6 C 8,4 C 84 % 1010,9 hPa 0,0 mm 0,0 km/h (0 Bft) W 270 6,1 C 0,0 km/h (0 Bft)
26.04.2015 05:25 8,4 C 8,2 C 84 % 1010,9 hPa 0,0 mm 0,0 km/h (0 Bft) NO 45 5,9 C 0,0 km/h (0 Bft)
26.04.2015 05:30 8,3 C 8,1 C 84 % 1010,9 hPa 0,0 mm 0,0 km/h (0 Bft) O-NO 67 5,8 C 0,0 km/h (0 Bft)
26.04.2015 05:35 8,0 C 7,8 C 84 % 1011,1 hPa 0,0 mm 0,0 km/h (0 Bft) O-SO 112 5,5 C 0,0 km/h (0 Bft)
26.04.2015 05:40 7,8 C 7,6 C 85 % 1011,1 hPa 0,0 mm 0,0 km/h (0 Bft) NO 45 5,4 C 0,0 km/h (0 Bft)
26.04.2015 05:45 7,7 C 7,5 C 85 % 1011,1 hPa 0,0 mm 0,0 km/h (0 Bft) O-SO 112 5,3 C 0,0 km/h (0 Bft)
26.04.2015 05:50 7,8 C 7,6 C 85 % 1011,1 hPa 0,0 mm 0,0 km/h (0 Bft) S-SW 202 5,4 C 0,0 km/h (0 Bft)
26.04.2015 05:55 7,9 C 7,7 C 86 % 1011,1 hPa 0,0 mm 0,0 km/h (0 Bft) NO 45 5,7 C 0,0 km/h (0 Bft)
26.04.2015 06:00 7,6 C 7,4 C 85 % 1011,1 hPa 0,0 mm 0,0 km/h (0 Bft) W-NW 292 5,2 C 0,0 km/h (0 Bft)
26.04.2015 06:05 7,5 C 7,3 C 85 % 1011,1 hPa 0,0 mm 0,0 km/h (0 Bft) S 180 5,1 C 0,0 km/h (0 Bft)
26.04.2015 06:10 7,6 C 7,4 C 86 % 1011,1 hPa 0,0 mm 0,0 km/h (0 Bft) S 180 5,4 C 0,0 km/h (0 Bft)
26.04.2015 06:15 7,7 C 7,5 C 86 % 1011,1 hPa 0,0 mm 0,0 km/h (0 Bft) S 180 5,5 C 0,0 km/h (0 Bft)
26.04.2015 06:20 7,8 C 7,6 C 86 % 1011,1 hPa 0,0 mm 0,0 km/h (0 Bft) SO 135 5,6 C 0,0 km/h (0 Bft)
26.04.2015 06:25 7,9 C 7,7 C 87 % 1011,1 hPa 0,0 mm 0,0 km/h (0 Bft) SO 135 5,9 C 0,0 km/h (0 Bft)
26.04.2015 06:30 7,9 C 7,7 C 87 % 1011,1 hPa 0,0 mm 0,0 km/h (0 Bft) SO 135 5,9 C 0,0 km/h (0 Bft)
26.04.2015 06:35 7,9 C 7,7 C 87 % 1010,9 hPa 0,0 mm 0,0 km/h (0 Bft) N-NO 22 5,9 C 0,0 km/h (0 Bft)
26.04.2015 06:40 7,6 C 7,5 C 86 % 1010,9 hPa 0,0 mm 0,0 km/h (0 Bft) O-NO 67 5,4 C 0,0 km/h (0 Bft)
26.04.2015 06:45 7,7 C 7,6 C 86 % 1010,9 hPa 0,0 mm 0,0 km/h (0 Bft) NW 315 5,5 C 0,0 km/h (0 Bft)
26.04.2015 06:50 7,7 C 7,6 C 86 % 1010,9 hPa 0,0 mm 0,0 km/h (0 Bft) O-NO 67 5,5 C 0,0 km/h (0 Bft)
26.04.2015 06:55 7,7 C 7,6 C 86 % 1010,9 hPa 0,0 mm 0,0 km/h (0 Bft) O-SO 112 5,5 C 0,0 km/h (0 Bft)
26.04.2015 07:00 7,8 C 7,9 C 82 % 1010,9 hPa 0,0 mm 0,0 km/h (0 Bft) NO 45 4,9 C 0,0 km/h (0 Bft)
26.04.2015 07:05 8,1 C 8,3 C 83 % 1010,9 hPa 0,0 mm 0,0 km/h (0 Bft) W-SW 247 5,4 C 0,0 km/h (0 Bft)
26.04.2015 07:10 8,5 C 8,6 C 83 % 1010,9 hPa 0,0 mm 0,0 km/h (0 Bft) NO 45 5,8 C 0,0 km/h (0 Bft)
26.04.2015 07:15 8,5 C 8,6 C 83 % 1011,2 hPa 0,0 mm 0,0 km/h (0 Bft) S 180 5,8 C 0,0 km/h (0 Bft)
26.04.2015 07:20 8,6 C 8,7 C 83 % 1011,2 hPa 0,0 mm 0,0 km/h (0 Bft) O-NO 67 5,9 C 0,0 km/h (0 Bft)
26.04.2015 07:25 8,7 C 9,2 C 83 % 1011,2 hPa 0,0 mm 0,0 km/h (0 Bft) N-NO 22 6,0 C 0,0 km/h (0 Bft)
26.04.2015 07:30 9,0 C 10,6 C 82 % 1011,2 hPa 0,0 mm 0,0 km/h (0 Bft) O 90 6,1 C 0,0 km/h (0 Bft)
26.04.2015 07:35 9,3 C 12,1 C 82 % 1011,1 hPa 0,0 mm 0,0 km/h (0 Bft) W 270 6,4 C 0,0 km/h (0 Bft)
26.04.2015 07:40 9,5 C 12,0 C 82 % 1011,1 hPa 0,0 mm 0,0 km/h (0 Bft) SW 225 6,6 C 0,0 km/h (0 Bft)
26.04.2015 07:45 9,7 C 11,4 C 82 % 1011,1 hPa 0,0 mm 0,0 km/h (0 Bft) O-NO 67 6,8 C 0,0 km/h (0 Bft)
26.04.2015 07:50 9,8 C 11,1 C 82 % 1011,1 hPa 0,0 mm 0,0 km/h (0 Bft) NO 45 6,9 C 0,0 km/h (0 Bft)
26.04.2015 07:55 9,9 C 11,1 C 82 % 1011,1 hPa 0,0 mm 0,0 km/h (0 Bft) W 270 7,0 C 0,0 km/h (0 Bft)
26.04.2015 08:00 10,0 C 11,2 C 81 % 1011,1 hPa 0,0 mm 0,0 km/h (0 Bft) O-SO 112 6,9 C 0,0 km/h (0 Bft)
26.04.2015 08:05 11,1 C 15,6 C 81 % 1011,1 hPa 0,0 mm 0,0 km/h (0 Bft) O-NO 67 8,0 C 0,0 km/h (0 Bft)
26.04.2015 08:10 11,3 C 15,9 C 79 % 1011,1 hPa 0,0 mm 0,0 km/h (0 Bft) S 180 7,8 C 0,0 km/h (0 Bft)
26.04.2015 08:15 11,5 C 16,9 C 79 % 1011,3 hPa 0,0 mm 0,0 km/h (0 Bft) NW 315 8,0 C 0,0 km/h (0 Bft)
26.04.2015 08:20 12,2 C 17,7 C 78 % 1011,3 hPa 0,0 mm 0,0 km/h (0 Bft) SW 225 8,5 C 0,0 km/h (0 Bft)
26.04.2015 08:25 12,1 C 17,3 C 77 % 1011,3 hPa 0,0 mm 0,0 km/h (0 Bft) N-NW 337 8,2 C 0,0 km/h (0 Bft)
26.04.2015 08:30 13,0 C 19,8 C 76 % 1011,3 hPa 0,0 mm 0,0 km/h (0 Bft) W-SW 247 8,9 C 0,0 km/h (0 Bft)
26.04.2015 08:35 13,3 C 19,8 C 75 % 1011,2 hPa 0,0 mm 0,0 km/h (0 Bft) W-NW 292 9,0 C 0,0 km/h (0 Bft)
26.04.2015 08:40 13,2 C 18,8 C 73 % 1011,2 hPa 0,0 mm 0,0 km/h (0 Bft) NW 315 8,5 C 0,0 km/h (0 Bft)
26.04.2015 08:45 12,8 C 17,0 C 74 % 1011,2 hPa 0,0 mm 0,0 km/h (0 Bft) O-SO 112 8,3 C 0,0 km/h (0 Bft)
26.04.2015 08:50 12,8 C 16,2 C 74 % 1011,2 hPa 0,0 mm 0,0 km/h (0 Bft) W-SW 247 8,3 C 0,0 km/h (0 Bft)
26.04.2015 08:55 12,9 C 15,8 C 74 % 1011,4 hPa 0,0 mm 0,0 km/h (0 Bft) N 360 8,4 C 0,0 km/h (0 Bft)
26.04.2015 09:00 12,9 C 16,0 C 73 % 1011,4 hPa 0,0 mm 0,0 km/h (0 Bft) W-NW 292 8,2 C 0,0 km/h (0 Bft)
26.04.2015 09:05 13,0 C 17,2 C 71 % 1011,4 hPa 0,0 mm 0,0 km/h (0 Bft) NO 45 7,9 C 0,0 km/h (0 Bft)
26.04.2015 09:10 13,0 C 17,1 C 71 % 1011,4 hPa 0,0 mm 0,0 km/h (0 Bft) N-NO 22 7,9 C 0,0 km/h (0 Bft)
26.04.2015 09:15 13,0 C 16,9 C 70 % 1011,2 hPa 0,0 mm 0,0 km/h (0 Bft) NO 45 7,7 C 0,0 km/h (0 Bft)
26.04.2015 09:20 13,3 C 16,9 C 70 % 1011,2 hPa 0,0 mm 0,0 km/h (0 Bft) W-NW 292 7,9 C 0,0 km/h (0 Bft)
26.04.2015 09:25 13,6 C 17,1 C 70 % 1011,2 hPa 0,0 mm 0,0 km/h (0 Bft) NW 315 8,2 C 0,0 km/h (0 Bft)
26.04.2015 09:30 13,8 C 17,1 C 69 % 1011,2 hPa 0,0 mm 0,0 km/h (0 Bft) N-NO 22 8,2 C 0,0 km/h (0 Bft)
26.04.2015 09:35 13,8 C 17,2 C 69 % 1011,1 hPa 0,0 mm 0,0 km/h (0 Bft) W 270 8,2 C 0,0 km/h (0 Bft)
26.04.2015 09:40 13,7 C 16,8 C 68 % 1011,1 hPa 0,0 mm 0,0 km/h (0 Bft) NW 315 7,9 C 0,0 km/h (0 Bft)
26.04.2015 09:45 13,9 C 17,1 C 68 % 1011,1 hPa 0,0 mm 0,0 km/h (0 Bft) N-NW 337 8,1 C 0,0 km/h (0 Bft)
26.04.2015 09:50 13,9 C 17,1 C 67 % 1011,1 hPa 0,0 mm 0,0 km/h (0 Bft) NW 315 7,9 C 0,0 km/h (0 Bft)
26.04.2015 09:55 14,3 C 18,8 C 67 % 1011,2 hPa 0,0 mm 0,0 km/h (0 Bft) W-NW 292 8,3 C 0,0 km/h (0 Bft)
26.04.2015 10:00 15,1 C 20,0 C 66 % 1011,2 hPa 0,0 mm 0,0 km/h (0 Bft) NW 315 8,8 C 0,0 km/h (0 Bft)
26.04.2015 10:05 14,9 C 19,8 C 64 % 1011,2 hPa 0,0 mm 0,0 km/h (0 Bft) W 270 8,2 C 0,0 km/h (0 Bft)
26.04.2015 10:10 14,5 C 19,0 C 64 % 1011,2 hPa 0,0 mm 0,0 km/h (0 Bft) W 270 7,8 C 0,0 km/h (0 Bft)
26.04.2015 10:15 14,7 C 19,7 C 64 % 1011,3 hPa 0,0 mm 0,0 km/h (0 Bft) N-NW 337 8,0 C 0,0 km/h (0 Bft)
26.04.2015 10:20 15,6 C 20,8 C 64 % 1011,3 hPa 0,0 mm 0,0 km/h (0 Bft) N-NW 337 8,8 C 0,0 km/h (0 Bft)
26.04.2015 10:25 15,9 C 21,9 C 62 % 1011,3 hPa 0,0 mm 0,0 km/h (0 Bft) N-NO 22 8,6 C 0,0 km/h (0 Bft)
26.04.2015 10:30 16,0 C 22,2 C 60 % 1011,3 hPa 0,0 mm 0,0 km/h (0 Bft) NW 315 8,2 C 0,0 km/h (0 Bft)
26.04.2015 10:35 16,0 C 22,3 C 60 % 1011,4 hPa 0,0 mm 0,0 km/h (0 Bft) W 270 8,2 C 0,0 km/h (0 Bft)
26.04.2015 10:40 16,5 C 22,6 C 60 % 1011,4 hPa 0,0 mm 0,0 km/h (0 Bft) W-NW 292 8,7 C 0,0 km/h (0 Bft)
26.04.2015 10:45 16,7 C 23,0 C 59 % 1011,4 hPa 0,0 mm 0,0 km/h (0 Bft) NW 315 8,6 C 0,0 km/h (0 Bft)
26.04.2015 10:50 16,5 C 22,6 C 58 % 1011,4 hPa 0,0 mm 0,0 km/h (0 Bft) NW 315 8,2 C 0,0 km/h (0 Bft)
26.04.2015 10:55 16,4 C 22,8 C 58 % 1011,4 hPa 0,0 mm 0,0 km/h (0 Bft) NW 315 8,1 C 0,0 km/h (0 Bft)
26.04.2015 11:00 16,5 C 22,6 C 58 % 1011,4 hPa 0,0 mm 0,0 km/h (0 Bft) W-SW 247 8,2 C 0,0 km/h (0 Bft)
26.04.2015 11:05 16,5 C 22,1 C 58 % 1011,4 hPa 0,0 mm 0,0 km/h (0 Bft) W-SW 247 8,2 C 0,0 km/h (0 Bft)
26.04.2015 11:10 16,7 C 21,9 C 58 % 1011,4 hPa 0,0 mm 0,0 km/h (0 Bft) N-NW 337 8,4 C 0,0 km/h (0 Bft)
26.04.2015 11:15 16,7 C 22,1 C 58 % 1011,4 hPa 0,0 mm 0,0 km/h (0 Bft) NW 315 8,4 C 0,0 km/h (0 Bft)
26.04.2015 11:20 17,2 C 22,6 C 57 % 1011,4 hPa 0,0 mm 0,0 km/h (0 Bft) W-SW 247 8,6 C 0,0 km/h (0 Bft)
26.04.2015 11:25 16,8 C 22,6 C 57 % 1011,4 hPa 0,0 mm 0,0 km/h (0 Bft) N-NO 22 8,2 C 0,0 km/h (0 Bft)
26.04.2015 11:30 16,7 C 22,4 C 58 % 1011,4 hPa 0,0 mm 0,0 km/h (0 Bft) N-NW 337 8,4 C 0,0 km/h (0 Bft)
26.04.2015 11:35 17,0 C 21,9 C 58 % 1011,4 hPa 0,0 mm 0,0 km/h (0 Bft) O-NO 67 8,7 C 0,0 km/h (0 Bft)
26.04.2015 11:40 16,7 C 21,8 C 58 % 1011,4 hPa 0,0 mm 0,0 km/h (0 Bft) N-NO 22 8,4 C 0,0 km/h (0 Bft)
26.04.2015 11:45 17,0 C 22,3 C 58 % 1011,4 hPa 0,0 mm 0,0 km/h (0 Bft) O-NO 67 8,7 C 0,0 km/h (0 Bft)
26.04.2015 11:50 17,0 C 22,7 C 57 % 1011,4 hPa 0,0 mm 0,0 km/h (0 Bft) N-NO 22 8,4 C 0,0 km/h (0 Bft)
26.04.2015 11:55 17,0 C 23,3 C 57 % 1011,3 hPa 0,0 mm 0,0 km/h (0 Bft) SO 135 8,4 C 0,0 km/h (0 Bft)
26.04.2015 12:00 17,1 C 23,7 C 57 % 1011,3 hPa 0,0 mm 0,0 km/h (0 Bft) N-NW 337 8,5 C 0,0 km/h (0 Bft)
26.04.2015 12:05 17,6 C 24,2 C 57 % 1011,3 hPa 0,0 mm 0,0 km/h (0 Bft) NW 315 9,0 C 0,0 km/h (0 Bft)
26.04.2015 12:10 18,0 C 24,1 C 56 % 1011,3 hPa 0,0 mm 0,0 km/h (0 Bft) N-NW 337 9,1 C 0,0 km/h (0 Bft)
26.04.2015 12:15 17,7 C 23,7 C 57 % 1011,2 hPa 0,0 mm 0,0 km/h (0 Bft) NO 45 9,1 C 0,0 km/h (0 Bft)
26.04.2015 12:20 17,7 C 23,7 C 57 % 1011,2 hPa 0,0 mm 0,0 km/h (0 Bft) W 270 9,1 C 0,0 km/h (0 Bft)
26.04.2015 12:25 17,4 C 22,5 C 56 % 1011,2 hPa 0,0 mm 0,0 km/h (0 Bft) W 270 8,5 C 0,0 km/h (0 Bft)
26.04.2015 12:30 16,9 C 20,7 C 57 % 1011,2 hPa 0,0 mm 0,0 km/h (0 Bft) N-NO 22 8,3 C 0,0 km/h (0 Bft)
26.04.2015 12:35 16,6 C 19,6 C 57 % 1011,1 hPa 0,0 mm 0,0 km/h (0 Bft) N-NO 22 8,0 C 0,0 km/h (0 Bft)
26.04.2015 12:40 17,2 C 21,2 C 56 % 1011,1 hPa 0,0 mm 0,0 km/h (0 Bft) N-NO 22 8,3 C 0,0 km/h (0 Bft)
26.04.2015 12:45 18,5 C 24,1 C 57 % 1011,1 hPa 0,0 mm 0,3 km/h (0 Bft) S 180 9,8 C 3,9 km/h (1 Bft)
26.04.2015 12:50 18,4 C 24,4 C 55 % 1011,1 hPa 0,0 mm 3,1 km/h (1 Bft) NW 315 9,2 C 11,7 km/h (2 Bft)
26.04.2015 12:55 18,4 C 23,8 C 55 % 1010,8 hPa 0,0 mm 6,5 km/h (2 Bft) NW 315 9,2 C 10,1 km/h (2 Bft)
26.04.2015 13:00 18,2 C 23,0 C 55 % 1010,8 hPa 0,0 mm 6,7 km/h (2 Bft) N-NW 337 9,0 C 10,6 km/h (2 Bft)
26.04.2015 13:05 17,5 C 21,2 C 55 % 1010,8 hPa 0,0 mm 6,5 km/h (2 Bft) N-NO 22 8,4 C 11,7 km/h (2 Bft)
26.04.2015 13:10 17,3 C 20,1 C 56 % 1010,8 hPa 0,0 mm 7,5 km/h (2 Bft) NW 315 8,4 C 10,6 km/h (2 Bft)
26.04.2015 13:15 17,0 C 18,9 C 56 % 1010,4 hPa 0,0 mm 6,7 km/h (2 Bft) W 270 8,2 C 11,1 km/h (2 Bft)
26.04.2015 13:20 16,7 C 18,7 C 56 % 1010,4 hPa 0,0 mm 5,4 km/h (1 Bft) W 270 7,9 C 2,6 km/h (1 Bft)
26.04.2015 13:25 16,7 C 18,9 C 57 % 1010,4 hPa 0,0 mm 3,1 km/h (1 Bft) W-NW 292 8,1 C 0,0 km/h (0 Bft)
26.04.2015 13:30 16,9 C 19,2 C 57 % 1010,4 hPa 0,0 mm 2,1 km/h (1 Bft) NW 315 8,3 C 4,4 km/h (1 Bft)
26.04.2015 13:35 17,3 C 19,5 C 56 % 1010,1 hPa 0,0 mm 3,4 km/h (1 Bft) N-NO 22 8,4 C 0,0 km/h (0 Bft)
26.04.2015 13:40 17,3 C 19,8 C 56 % 1010,1 hPa 0,0 mm 3,9 km/h (1 Bft) NW 315 8,4 C 8,5 km/h (2 Bft)
26.04.2015 13:45 16,8 C 19,5 C 56 % 1010,1 hPa 0,0 mm 2,8 km/h (1 Bft) NW 315 8,0 C 2,8 km/h (1 Bft)
26.04.2015 13:50 16,7 C 19,2 C 56 % 1010,1 hPa 0,0 mm 3,9 km/h (1 Bft) N-NO 22 7,9 C 3,6 km/h (1 Bft)
26.04.2015 13:55 16,7 C 19,4 C 56 % 1009,6 hPa 0,0 mm 2,1 km/h (1 Bft) W-SW 247 7,9 C 0,0 km/h (0 Bft)
26.04.2015 14:00 17,1 C 19,9 C 57 % 1009,6 hPa 0,0 mm 2,3 km/h (1 Bft) NW 315 8,5 C 11,7 km/h (2 Bft)
26.04.2015 14:05 18,0 C 21,9 C 56 % 1009,6 hPa 0,0 mm 3,9 km/h (1 Bft) N-NW 337 9,1 C 8,3 km/h (2 Bft)
26.04.2015 14:10 18,3 C 22,6 C 55 % 1009,6 hPa 0,0 mm 5,4 km/h (1 Bft) W-SW 247 9,1 C 4,9 km/h (1 Bft)
26.04.2015 14:15 18,6 C 23,7 C 55 % 1009,4 hPa 0,0 mm 6,2 km/h (2 Bft) NO 45 9,4 C 11,4 km/h (2 Bft)
26.04.2015 14:20 18,2 C 22,6 C 55 % 1009,4 hPa 0,0 mm 6,0 km/h (2 Bft) O 90 9,0 C 8,0 km/h (2 Bft)
26.04.2015 14:25 18,1 C 22,7 C 54 % 1009,4 hPa 0,0 mm 6,7 km/h (2 Bft) O-NO 67 8,6 C 0,0 km/h (0 Bft)
26.04.2015 14:30 18,0 C 23,0 C 55 % 1009,4 hPa 0,0 mm 4,7 km/h (1 Bft) NW 315 8,8 C 4,1 km/h (1 Bft)
26.04.2015 14:35 18,2 C 23,2 C 54 % 1009,2 hPa 0,0 mm 3,1 km/h (1 Bft) SO 135 8,7 C 2,6 km/h (1 Bft)
26.04.2015 14:40 18,3 C 23,6 C 53 % 1009,2 hPa 0,0 mm 3,4 km/h (1 Bft) SW 225 8,6 C 3,4 km/h (1 Bft)
26.04.2015 14:45 18,7 C 24,4 C 52 % 1009,2 hPa 0,0 mm 4,7 km/h (1 Bft) O-NO 67 8,6 C 14,0 km/h (3 Bft)
26.04.2015 14:50 18,6 C 24,0 C 52 % 1009,2 hPa 0,0 mm 7,0 km/h (2 Bft) NO 45 8,5 C 7,0 km/h (2 Bft)
26.04.2015 14:55 18,6 C 23,6 C 52 % 1008,8 hPa 0,0 mm 8,3 km/h (2 Bft) N-NO 22 8,5 C 8,3 km/h (2 Bft)
26.04.2015 15:00 18,8 C 23,4 C 51 % 1008,8 hPa 0,0 mm 9,1 km/h (2 Bft) O-NO 67 8,4 C 10,1 km/h (2 Bft)
26.04.2015 15:05 18,8 C 23,6 C 52 % 1008,8 hPa 0,0 mm 7,8 km/h (2 Bft) NO 45 8,7 C 11,4 km/h (2 Bft)
26.04.2015 15:10 18,3 C 23,2 C 52 % 1008,8 hPa 0,0 mm 8,0 km/h (2 Bft) NO 45 8,3 C 13,5 km/h (3 Bft)
26.04.2015 15:15 18,1 C 20,9 C 53 % 1008,9 hPa 0,0 mm 9,3 km/h (2 Bft) O-NO 67 8,4 C 6,5 km/h (2 Bft)
26.04.2015 15:20 18,2 C 21,0 C 53 % 1008,9 hPa 0,0 mm 6,7 km/h (2 Bft) SO 135 8,5 C 0,0 km/h (0 Bft)
26.04.2015 15:25 18,3 C 21,5 C 52 % 1008,9 hPa 0,0 mm 4,9 km/h (1 Bft) N-NO 22 8,3 C 10,1 km/h (2 Bft)
26.04.2015 15:30 18,5 C 21,7 C 52 % 1008,9 hPa 0,0 mm 6,0 km/h (2 Bft) NO 45 8,5 C 13,2 km/h (3 Bft)
26.04.2015 15:35 19,0 C 23,5 C 53 % 1008,6 hPa 0,0 mm 8,5 km/h (2 Bft) O 90 9,2 C 22,8 km/h (4 Bft)
26.04.2015 15:40 19,0 C 23,4 C 52 % 1008,6 hPa 0,0 mm 11,4 km/h (2 Bft) N-NO 22 8,9 C 12,7 km/h (3 Bft)
26.04.2015 15:45 18,3 C 21,7 C 53 % 1008,6 hPa 0,0 mm 12,4 km/h (3 Bft) N-NW 337 8,6 C 14,8 km/h (3 Bft)
26.04.2015 15:50 18,1 C 20,5 C 52 % 1008,6 hPa 0,0 mm 10,4 km/h (2 Bft) N-NO 22 8,1 C 14,5 km/h (3 Bft)
26.04.2015 15:55 17,9 C 19,6 C 53 % 1008,3 hPa 0,0 mm 8,5 km/h (2 Bft) NO 45 8,2 C 12,7 km/h (3 Bft)
26.04.2015 16:00 18,0 C 19,8 C 53 % 1008,3 hPa 0,0 mm 8,3 km/h (2 Bft) NO 45 8,3 C 16,6 km/h (3 Bft)
26.04.2015 16:05 18,3 C 20,7 C 53 % 1008,3 hPa 0,0 mm 8,5 km/h (2 Bft) O-NO 67 8,6 C 9,3 km/h (2 Bft)
26.04.2015 16:10 18,4 C 21,6 C 53 % 1008,3 hPa 0,0 mm 8,0 km/h (2 Bft) NO 45 8,6 C 6,2 km/h (2 Bft)
26.04.2015 16:15 18,4 C 22,3 C 52 % 1008,1 hPa 0,0 mm 7,3 km/h (2 Bft) N-NO 22 8,4 C 9,8 km/h (2 Bft)
26.04.2015 16:20 18,5 C 22,6 C 52 % 1008,1 hPa 0,0 mm 7,5 km/h (2 Bft) N-NW 337 8,5 C 9,3 km/h (2 Bft)
26.04.2015 16:25 18,4 C 22,6 C 52 % 1008,1 hPa 0,0 mm 8,0 km/h (2 Bft) N-NO 22 8,4 C 4,4 km/h (1 Bft)
26.04.2015 16:30 18,3 C 21,9 C 52 % 1008,1 hPa 0,0 mm 8,5 km/h (2 Bft) NO 45 8,3 C 6,7 km/h (2 Bft)
26.04.2015 16:35 18,3 C 21,9 C 52 % 1007,8 hPa 0,0 mm 10,9 km/h (2 Bft) NO 45 8,3 C 23,0 km/h (4 Bft)
26.04.2015 16:40 18,5 C 22,1 C 51 % 1007,8 hPa 0,0 mm 10,9 km/h (2 Bft) N-NO 22 8,2 C 13,7 km/h (3 Bft)
26.04.2015 16:45 18,3 C 21,7 C 51 % 1007,8 hPa 0,0 mm 11,1 km/h (2 Bft) N 360 8,0 C 14,5 km/h (3 Bft)
26.04.2015 16:50 18,4 C 21,4 C 51 % 1007,8 hPa 0,0 mm 11,4 km/h (2 Bft) NO 45 8,1 C 8,5 km/h (2 Bft)
26.04.2015 16:55 18,4 C 21,1 C 52 % 1007,4 hPa 0,0 mm 9,6 km/h (2 Bft) NO 45 8,4 C 16,8 km/h (3 Bft)
26.04.2015 17:00 18,3 C 20,7 C 52 % 1007,4 hPa 0,0 mm 9,3 km/h (2 Bft) NO 45 8,3 C 18,4 km/h (3 Bft)
26.04.2015 17:05 18,4 C 20,7 C 51 % 1007,4 hPa 0,0 mm 10,6 km/h (2 Bft) NO 45 8,1 C 10,6 km/h (2 Bft)
26.04.2015 17:10 18,3 C 20,4 C 51 % 1007,4 hPa 0,0 mm 11,4 km/h (2 Bft) O-NO 67 8,0 C 11,4 km/h (2 Bft)
26.04.2015 17:15 18,3 C 20,3 C 51 % 1007,4 hPa 0,0 mm 9,8 km/h (2 Bft) N-NO 22 8,0 C 16,1 km/h (3 Bft)
26.04.2015 17:20 18,3 C 20,3 C 51 % 1007,4 hPa 0,0 mm 9,1 km/h (2 Bft) O-NO 67 8,0 C 7,5 km/h (2 Bft)
26.04.2015 17:25 18,2 C 19,8 C 51 % 1007,4 hPa 0,0 mm 10,9 km/h (2 Bft) NO 45 7,9 C 13,2 km/h (3 Bft)
26.04.2015 17:30 18,2 C 19,9 C 51 % 1007,4 hPa 0,0 mm 10,4 km/h (2 Bft) NO 45 7,9 C 10,6 km/h (2 Bft)
26.04.2015 17:35 18,3 C 19,8 C 51 % 1007,1 hPa 0,0 mm 8,8 km/h (2 Bft) O-NO 67 8,0 C 4,9 km/h (1 Bft)
26.04.2015 17:40 18,0 C 19,5 C 52 % 1007,1 hPa 0,0 mm 9,3 km/h (2 Bft) NO 45 8,0 C 8,0 km/h (2 Bft)
26.04.2015 17:45 17,7 C 18,8 C 53 % 1007,1 hPa 0,0 mm 9,6 km/h (2 Bft) N-NO 22 8,0 C 8,3 km/h (2 Bft)
26.04.2015 17:50 17,6 C 18,5 C 53 % 1007,1 hPa 0,0 mm 10,4 km/h (2 Bft) NO 45 7,9 C 7,5 km/h (2 Bft)
26.04.2015 17:55 17,6 C 18,5 C 53 % 1007,1 hPa 0,0 mm 7,8 km/h (2 Bft) NO 45 7,9 C 7,0 km/h (2 Bft)
26.04.2015 18:00 17,6 C 18,6 C 53 % 1007,1 hPa 0,0 mm 7,3 km/h (2 Bft) O-NO 67 7,9 C 6,7 km/h (2 Bft)
26.04.2015 18:05 17,7 C 19,0 C 53 % 1007,1 hPa 0,0 mm 7,3 km/h (2 Bft) NO 45 8,0 C 3,9 km/h (1 Bft)
26.04.2015 18:10 17,9 C 19,3 C 52 % 1007,1 hPa 0,0 mm 7,3 km/h (2 Bft) O-NO 67 7,9 C 9,8 km/h (2 Bft)
26.04.2015 18:15 17,9 C 19,7 C 52 % 1006,9 hPa 0,0 mm 9,3 km/h (2 Bft) O 90 7,9 C 16,6 km/h (3 Bft)
26.04.2015 18:20 17,7 C 19,3 C 53 % 1006,9 hPa 0,0 mm 10,4 km/h (2 Bft) N-NO 22 8,0 C 13,5 km/h (3 Bft)
26.04.2015 18:25 17,2 C 18,3 C 52 % 1006,9 hPa 0,0 mm 11,4 km/h (2 Bft) N-NO 22 7,3 C 11,1 km/h (2 Bft)
26.04.2015 18:30 17,1 C 17,8 C 53 % 1006,9 hPa 0,0 mm 11,1 km/h (2 Bft) NO 45 7,4 C 12,2 km/h (2 Bft)
26.04.2015 18:35 16,8 C 17,3 C 53 % 1006,8 hPa 0,0 mm 6,5 km/h (2 Bft) O 90 7,2 C 0,0 km/h (0 Bft)
26.04.2015 18:40 16,8 C 17,2 C 55 % 1006,8 hPa 0,0 mm 3,1 km/h (1 Bft) N-NO 22 7,7 C 0,0 km/h (0 Bft)
26.04.2015 18:45 16,7 C 17,2 C 55 % 1006,8 hPa 0,0 mm 1,3 km/h (1 Bft) NO 45 7,6 C 0,0 km/h (0 Bft)
26.04.2015 18:50 16,7 C 17,2 C 56 % 1006,8 hPa 0,0 mm 1,6 km/h (1 Bft) NO 45 7,9 C 0,0 km/h (0 Bft)
26.04.2015 18:55 16,5 C 16,9 C 56 % 1006,4 hPa 0,0 mm 1,0 km/h (0 Bft) O 90 7,7 C 0,0 km/h (0 Bft)
26.04.2015 19:00 16,3 C 16,8 C 56 % 1006,4 hPa 0,0 mm 0,5 km/h (0 Bft) O-NO 67 7,5 C 0,0 km/h (0 Bft)
26.04.2015 19:05 16,1 C 16,5 C 57 % 1006,4 hPa 0,0 mm 0,5 km/h (0 Bft) N-NW 337 7,6 C 4,7 km/h (1 Bft)
26.04.2015 19:10 16,0 C 16,5 C 57 % 1006,4 hPa 0,0 mm 0,8 km/h (0 Bft) O-NO 67 7,5 C 0,0 km/h (0 Bft)
26.04.2015 19:15 15,8 C 16,2 C 57 % 1006,4 hPa 0,0 mm 0,8 km/h (0 Bft) O 90 7,3 C 0,0 km/h (0 Bft)
26.04.2015 19:20 15,7 C 16,1 C 58 % 1006,4 hPa 0,0 mm 0,0 km/h (0 Bft) O-SO 112 7,5 C 0,0 km/h (0 Bft)
26.04.2015 19:25 15,4 C 15,8 C 59 % 1006,4 hPa 0,0 mm 0,0 km/h (0 Bft) O-SO 112 7,4 C 0,0 km/h (0 Bft)
26.04.2015 19:30 15,2 C 15,5 C 59 % 1006,4 hPa 0,0 mm 0,0 km/h (0 Bft) O-SO 112 7,2 C 0,0 km/h (0 Bft)
26.04.2015 19:35 15,0 C 15,2 C 59 % 1006,1 hPa 0,0 mm 0,0 km/h (0 Bft) O-SO 112 7,1 C 0,0 km/h (0 Bft)
26.04.2015 19:40 15,0 C 15,2 C 59 % 1006,1 hPa 0,0 mm 0,0 km/h (0 Bft) O-SO 112 7,1 C 0,0 km/h (0 Bft)
26.04.2015 19:45 14,9 C 15,0 C 59 % 1006,1 hPa 0,0 mm 0,0 km/h (0 Bft) O-SO 112 7,0 C 0,0 km/h (0 Bft)
26.04.2015 19:50 14,7 C 14,8 C 60 % 1006,1 hPa 0,0 mm 0,0 km/h (0 Bft) O-SO 112 7,0 C 0,0 km/h (0 Bft)
26.04.2015 19:55 14,6 C 14,6 C 60 % 1006,1 hPa 0,0 mm 0,0 km/h (0 Bft) O-SO 112 6,9 C 0,0 km/h (0 Bft)
26.04.2015 20:00 14,4 C 14,4 C 61 % 1006,1 hPa 0,0 mm 0,0 km/h (0 Bft) O-SO 112 7,0 C 0,0 km/h (0 Bft)
26.04.2015 20:05 14,2 C 14,1 C 62 % 1006,1 hPa 0,0 mm 0,0 km/h (0 Bft) SO 135 7,0 C 3,4 km/h (1 Bft)
26.04.2015 20:10 14,1 C 14,0 C 62 % 1006,1 hPa 0,0 mm 0,3 km/h (0 Bft) S-SO 157 6,9 C 3,1 km/h (1 Bft)
26.04.2015 20:15 13,9 C 13,8 C 63 % 1006,1 hPa 0,0 mm 0,5 km/h (0 Bft) S-SO 157 7,0 C 0,0 km/h (0 Bft)
26.04.2015 20:20 13,8 C 13,7 C 63 % 1006,1 hPa 0,0 mm 0,5 km/h (0 Bft) S-SO 157 6,9 C 2,6 km/h (1 Bft)
26.04.2015 20:25 13,5 C 13,4 C 64 % 1006,1 hPa 0,0 mm 0,3 km/h (0 Bft) S-SO 157 6,8 C 0,0 km/h (0 Bft)
26.04.2015 20:30 13,4 C 13,2 C 64 % 1006,1 hPa 0,0 mm 0,0 km/h (0 Bft) S-SO 157 6,7 C 0,0 km/h (0 Bft)
26.04.2015 20:35 13,0 C 12,8 C 64 % 1006,0 hPa 0,0 mm 0,0 km/h (0 Bft) S-SO 157 6,4 C 0,0 km/h (0 Bft)
26.04.2015 20:40 12,3 C 12,2 C 66 % 1006,0 hPa 0,0 mm 0,0 km/h (0 Bft) S-SO 157 6,1 C 0,0 km/h (0 Bft)
26.04.2015 20:45 12,2 C 12,0 C 66 % 1006,0 hPa 0,0 mm 0,0 km/h (0 Bft) S-SO 157 6,0 C 0,0 km/h (0 Bft)
26.04.2015 20:50 12,0 C 11,8 C 66 % 1006,0 hPa 0,0 mm 0,0 km/h (0 Bft) S-SO 157 5,8 C 0,0 km/h (0 Bft)
26.04.2015 20:55 11,9 C 11,6 C 67 % 1006,0 hPa 0,0 mm 0,0 km/h (0 Bft) S-SO 157 6,0 C 0,0 km/h (0 Bft)
26.04.2015 21:00 11,9 C 11,6 C 68 % 1006,0 hPa 0,0 mm 0,0 km/h (0 Bft) S-SO 157 6,2 C 0,0 km/h (0 Bft)
26.04.2015 21:05 12,1 C 11,7 C 69 % 1006,0 hPa 0,0 mm 0,0 km/h (0 Bft) S-SO 157 6,6 C 0,0 km/h (0 Bft)
26.04.2015 21:10 12,3 C 11,8 C 69 % 1006,0 hPa 0,0 mm 0,0 km/h (0 Bft) S-SO 157 6,8 C 0,0 km/h (0 Bft)
26.04.2015 21:15 12,2 C 11,8 C 68 % 1005,9 hPa 0,0 mm 0,0 km/h (0 Bft) S-SO 157 6,5 C 0,0 km/h (0 Bft)
26.04.2015 21:20 11,8 C 11,4 C 71 % 1005,9 hPa 0,0 mm 0,0 km/h (0 Bft) S-SO 157 6,7 C 0,0 km/h (0 Bft)
26.04.2015 21:25 12,2 C 11,7 C 71 % 1005,9 hPa 0,0 mm 0,0 km/h (0 Bft) S-SO 157 7,1 C 0,0 km/h (0 Bft)
26.04.2015 21:30 12,3 C 11,8 C 71 % 1005,9 hPa 0,0 mm 0,0 km/h (0 Bft) S-SO 157 7,2 C 2,8 km/h (1 Bft)
26.04.2015 21:35 12,4 C 12,0 C 70 % 1005,9 hPa 0,0 mm 0,3 km/h (0 Bft) SO 135 7,1 C 0,0 km/h (0 Bft)
26.04.2015 21:40 12,0 C 11,7 C 69 % 1005,9 hPa 0,0 mm 0,3 km/h (0 Bft) S 180 6,5 C 0,0 km/h (0 Bft)
26.04.2015 21:45 10,8 C 10,8 C 69 % 1005,9 hPa 0,0 mm 0,0 km/h (0 Bft) SW 225 5,3 C 0,0 km/h (0 Bft)
26.04.2015 21:50 10,4 C 10,3 C 70 % 1005,9 hPa 0,0 mm 0,0 km/h (0 Bft) S-SO 157 5,2 C 0,0 km/h (0 Bft)
26.04.2015 21:55 10,7 C 10,4 C 74 % 1005,9 hPa 0,0 mm 0,0 km/h (0 Bft) SO 135 6,3 C 0,0 km/h (0 Bft)
26.04.2015 22:00 10,9 C 10,4 C 75 % 1005,9 hPa 0,0 mm 0,0 km/h (0 Bft) SO 135 6,6 C 0,0 km/h (0 Bft)
26.04.2015 22:05 10,2 C 9,9 C 73 % 1005,9 hPa 0,0 mm 0,0 km/h (0 Bft) O-SO 112 5,6 C 0,0 km/h (0 Bft)
26.04.2015 22:10 10,3 C 10,0 C 76 % 1005,9 hPa 0,0 mm 0,0 km/h (0 Bft) O-SO 112 6,3 C 0,0 km/h (0 Bft)
26.04.2015 22:15 10,1 C 9,7 C 77 % 1006,1 hPa 0,0 mm 0,0 km/h (0 Bft) O 90 6,3 C 0,0 km/h (0 Bft)
26.04.2015 22:20 10,0 C 9,6 C 77 % 1006,1 hPa 0,0 mm 0,0 km/h (0 Bft) O 90 6,2 C 0,0 km/h (0 Bft)
26.04.2015 22:25 9,7 C 9,2 C 76 % 1006,1 hPa 0,0 mm 0,0 km/h (0 Bft) O 90 5,7 C 0,0 km/h (0 Bft)
26.04.2015 22:30 9,3 C 8,9 C 75 % 1006,1 hPa 0,0 mm 0,0 km/h (0 Bft) O 90 5,1 C 0,0 km/h (0 Bft)
26.04.2015 22:35 9,2 C 8,8 C 76 % 1006,0 hPa 0,0 mm 0,0 km/h (0 Bft) O 90 5,2 C 0,0 km/h (0 Bft)
26.04.2015 22:40 8,9 C 8,6 C 76 % 1006,0 hPa 0,0 mm 0,0 km/h (0 Bft) O 90 4,9 C 0,0 km/h (0 Bft)
26.04.2015 22:45 8,7 C 8,4 C 76 % 1006,0 hPa 0,0 mm 0,0 km/h (0 Bft) O 90 4,7 C 0,0 km/h (0 Bft)
26.04.2015 22:50 8,5 C 8,2 C 76 % 1006,0 hPa 0,0 mm 0,0 km/h (0 Bft) O 90 4,5 C 0,0 km/h (0 Bft)
26.04.2015 22:55 8,4 C 8,1 C 76 % 1005,8 hPa 0,0 mm 0,0 km/h (0 Bft) NO 45 4,4 C 0,0 km/h (0 Bft)
26.04.2015 23:00 8,8 C 8,4 C 78 % 1005,8 hPa 0,0 mm 0,0 km/h (0 Bft) NO 45 5,2 C 0,0 km/h (0 Bft)
26.04.2015 23:05 8,9 C 8,6 C 78 % 1005,8 hPa 0,0 mm 0,0 km/h (0 Bft) N-NO 22 5,3 C 0,0 km/h (0 Bft)
26.04.2015 23:10 9,1 C 8,8 C 79 % 1005,8 hPa 0,0 mm 0,0 km/h (0 Bft) O 90 5,7 C 0,0 km/h (0 Bft)
26.04.2015 23:15 9,2 C 9,0 C 79 % 1005,4 hPa 0,0 mm 0,3 km/h (0 Bft) NO 45 5,8 C 0,0 km/h (0 Bft)
26.04.2015 23:20 8,9 C 8,8 C 79 % 1005,4 hPa 0,0 mm 0,3 km/h (0 Bft) O-SO 112 5,5 C 0,0 km/h (0 Bft)
26.04.2015 23:25 9,0 C 8,8 C 79 % 1005,4 hPa 0,0 mm 0,3 km/h (0 Bft) O-SO 112 5,6 C 0,0 km/h (0 Bft)
26.04.2015 23:30 8,8 C 8,7 C 79 % 1005,4 hPa 0,0 mm 0,3 km/h (0 Bft) W-NW 292 5,4 C 5,4 km/h (1 Bft)
26.04.2015 23:35 9,2 C 9,0 C 79 % 1005,7 hPa 0,0 mm 2,1 km/h (1 Bft) W-SW 247 5,8 C 4,9 km/h (1 Bft)
26.04.2015 23:40 9,5 C 9,3 C 79 % 1005,7 hPa 0,0 mm 2,6 km/h (1 Bft) O-SO 112 6,0 C 0,0 km/h (0 Bft)
26.04.2015 23:45 9,7 C 9,4 C 80 % 1005,7 hPa 0,0 mm 1,3 km/h (1 Bft) SO 135 6,4 C 4,1 km/h (1 Bft)
26.04.2015 23:50 9,9 C 9,6 C 80 % 1005,7 hPa 0,0 mm 1,6 km/h (1 Bft) O-SO 112 6,6 C 0,0 km/h (0 Bft)
26.04.2015 23:55 9,8 C 9,5 C 79 % 1005,1 hPa 0,0 mm 1,0 km/h (0 Bft) SW 225 6,3 C 0,0 km/h (0 Bft)
_ Min-Zeit 06:05 06:05 17:35 23:55 - 23:10 - - 22:55 23:55
Minimum _ 7,5 C 7,3 C 51 % 1005,1 hPa - 0,0 km/h (0 Bft) - - 4,4 C 0,0 km/h (0 Bft)
_ Max-Zeit 15:40 14:45 06:35 01:50 04:55 15:45 - - 12:45 16:35
Maximum _ 19,0 C 24,4 C 87 % 1012,6 hPa 0,7 mm 12,4 km/h
N-NW (3 Bft)
- - 9,8 C 23,0 km/h
NO (4 Bft)
Durchschnitt _ 13,1 C 14,8 C 69 % 1009,5 hPa #0,7 mm 2,6 km/h (1 Bft) NO - 7,3 C 3,4 km/h (1 Bft)